This is the latest recevied weather packets stored in our database for station/object NB9X. If no packets are shown the sender has not sent any weather packets the latest 10 day(s).
| Time | Temp. | Humidity | Pressure | Rain* | Wind** | Luminosity | Snow |
|---|---|---|---|---|---|---|---|
| 1777663099 | 30.56° C | 100% | 1010.8 hPa | 0 mm | - | - | - |
| 1777662799 | 30° C | 100% | 1010.9 hPa | 0 mm | - | - | - |
| 1777662499 | 30.56° C | 100% | 1010.9 hPa | 0 mm | - | - | - |
| 1777662199 | 31.11° C | 100% | 1011 hPa | 0 mm | - | - | - |
| 1777661899 | 31.11° C | 100% | 1011.1 hPa | 0 mm | - | - | - |
| 1777661599 | 31.11° C | 100% | 1011.3 hPa | 0 mm | - | - | - |
| 1777661299 | 31.11° C | 100% | 1011.4 hPa | 0 mm | - | - | - |
| 1777660999 | 30° C | 100% | 1011.4 hPa | 0 mm | - | - | - |
| 1777660699 | 30.56° C | 100% | 1011.4 hPa | 0 mm | - | - | - |
| 1777660399 | 31.11° C | 100% | 1011.5 hPa | 0 mm | - | - | - |
| 1777660099 | 31.67° C | 100% | 1011.4 hPa | 0 mm | - | - | - |
| 1777659799 | 31.11° C | 100% | 1011.5 hPa | 0 mm | - | - | - |
| 1777659499 | 31.67° C | 100% | 1011.6 hPa | 0 mm | - | - | - |
| 1777659199 | 31.67° C | 100% | 1011.6 hPa | 0 mm | - | - | - |
| 1777658899 | 32.22° C | 100% | 1011.6 hPa | 0 mm | - | - | - |
| 1777658599 | 31.11° C | 100% | 1011.5 hPa | 0 mm | - | - | - |
| 1777658364 | 31.67° C | 100% | 1011.5 hPa | 0 mm | - | - | - |
| 1777658299 | 31.67° C | 100% | 1011.5 hPa | 0 mm | - | - | - |
| 1777657999 | 31.67° C | 100% | 1011.6 hPa | 0 mm | - | - | - |
| 1777657699 | 31.11° C | 100% | 1011.7 hPa | 0 mm | - | - | - |
| 1777657399 | 31.11° C | 100% | 1011.7 hPa | 0 mm | - | - | - |
| 1777657099 | 31.67° C | 100% | 1011.8 hPa | 0 mm | - | - | - |
| 1777656799 | 30° C | 100% | 1011.8 hPa | 0 mm | - | - | - |
| 1777656709 | 31.11° C | 100% | 1011.7 hPa | 0 mm | - | - | - |
| 1777656499 | 31.11° C | 100% | 1011.7 hPa | 0 mm | - | - | - |
* Rain latest hour (hover to see other rain measurements)
** Current wind speed in m/s (hover to see current wind gust speed)